Weather History for KMLP - October, 2013

Change the Weather History Date:

Sunday, October 6, 2013

  Actual Average (K3TH) Record (K3TH)
Temperature  
Mean Temperature 47 °F -  
Max Temperature 55 °F 60 °F 71 °F (2002)
Min Temperature 39 °F 40 °F 32 °F (2000)
Degree Days  
Heating Degree Days 18    
Moisture  
Dew Point 22 °F    
Average Humidity 36    
Maximum Humidity 47    
Minimum Humidity 25    
Precipitation  
Precipitation 0.00 in - - ()
Sea Level Pressure  
Sea Level Pressure 30.03 in    
Wind  
Wind Speed 6 mph (South)    
Max Wind Speed 10 mph    
Max Gust Speed -    
Visibility 10 miles    
Events      
Averages and records for this station are not official NWS values.
T = Trace of Precipitation, MM = Missing Value Source: NWS Daily Summary

Daily Weather History Graph

Daily Weather History Graph

Search for Another Location

Airport or City:

Trip Planner

Search our weather history database for the weather conditions in past years. The results will help you decide how hot, cold, wet, or windy it might be!

Date:

Astronomy

Oct. 06, 2013 Rise Set
Actual Time 6:49 AM PDT 6:11 PM PDT
Civil Twilight 6:18 AM PDT 6:42 PM PDT
Nautical Twilight 5:42 AM PDT 7:17 PM PDT
Astronomical Twilight 5:06 AM PDT 7:53 PM PDT
Moon 8:47 AM PDT (10/6) 7:02 PM PDT (10/6)
Length of Visible Light 12h 23m
Length of Day
11h 22m
Waxing Crescent, 4% of the Moon is Illuminated
Oct 6
Waxing Crescent
Oct 11
First Quarter
Oct 18
Full
Oct 26
Last Quarter
Nov 3
New

Hourly Weather History & Observations

Time (PDT) Temp. Windchill Dew Point Humidity Pressure Visibility Wind Dir Wind Speed Gust Speed Precip Events Conditions
12:53 AM 42.1 °F 40.2 °F 8.1 °F 25% 30.18 in 10.0 mi South 3.5 mph - N/A   Clear
1:53 AM 41.0 °F 38.0 °F 16.0 °F 36% 30.16 in 10.0 mi South 4.6 mph - N/A   Clear
2:53 AM 43.0 °F 39.5 °F 17.1 °F 35% 30.14 in 10.0 mi SSW 5.8 mph - N/A   Clear
3:53 AM 41.0 °F 36.4 °F 18.0 °F 40% 30.13 in 10.0 mi South 6.9 mph - N/A   Clear
4:53 AM 41.0 °F 35.8 °F 19.0 °F 41% 30.12 in 10.0 mi South 8.1 mph - N/A   Clear
5:53 AM 41.0 °F 35.2 °F 19.9 °F 43% 30.15 in 10.0 mi South 9.2 mph - N/A   Clear
6:53 AM 39.9 °F 33.4 °F 21.0 °F 47% 30.12 in 10.0 mi South 10.4 mph - N/A   Clear
7:53 AM 41.0 °F 35.2 °F 21.9 °F 47% 30.12 in 10.0 mi South 9.2 mph - N/A   Clear
8:53 AM 44.1 °F 39.5 °F 24.1 °F 45% 30.12 in 10.0 mi South 8.1 mph - N/A   Clear
9:53 AM 46.9 °F - 25.0 °F 42% 30.09 in 10.0 mi South 9.2 mph - N/A   Clear
10:53 AM 48.9 °F - 27.0 °F 43% 30.09 in 10.0 mi Variable 5.8 mph - N/A   Clear
11:53 AM 52.0 °F - 27.0 °F 38% 30.06 in 10.0 mi Variable 3.5 mph - N/A   Clear
12:53 PM 54.0 °F - 25.0 °F 33% 30.04 in 10.0 mi Variable 5.8 mph - N/A   Clear
1:53 PM 55.9 °F - 24.1 °F 29% 30.01 in 10.0 mi Variable 4.6 mph - N/A   Clear
2:53 PM 55.9 °F - 23.0 °F 28% 29.99 in 10.0 mi South 6.9 mph - N/A   Clear
3:53 PM 55.9 °F - 25.0 °F 30% 29.98 in 10.0 mi Variable 4.6 mph - N/A   Clear
4:53 PM 53.1 °F - 24.1 °F 32% 29.97 in 10.0 mi Variable 4.6 mph - N/A   Clear
5:53 PM 51.1 °F - 19.9 °F 29% 29.95 in 10.0 mi South 4.6 mph - N/A   Clear
6:53 PM 50.0 °F - 21.0 °F 32% 29.95 in 10.0 mi South 6.9 mph - N/A   Clear
7:53 PM 50.0 °F - 21.0 °F 32% 29.93 in 10.0 mi SSE 6.9 mph - N/A   Clear
8:53 PM 50.0 °F - 21.0 °F 32% 29.90 in 10.0 mi Variable 4.6 mph - N/A   Clear
9:53 PM 50.0 °F - 21.9 °F 33% 29.88 in 10.0 mi South 3.5 mph - N/A   Clear
10:53 PM 48.9 °F - 23.0 °F 36% 29.87 in 10.0 mi SSW 4.6 mph - N/A   Clear
11:53 PM 48.9 °F - 23.0 °F 36% 29.84 in 10.0 mi SSW 5.8 mph - N/A   Clear